| time (UTC) | temp F | wind direction | speed MPH | gust MPH | rain 1hr in | rain 24hr in | rain mn in | humidity % | barometer mb |
| 20260509001520 | 58 | 350 | 4.0 | 11.0 | 0.00 | 0.00 | 0.00 | 60 | 1025.6 |
| 20260509000014 | 57 | 13 | 3.0 | 9.0 | 0.00 | 0.00 | 0.00 | 61 | 1025.7 |
| 20260508234508 | 57 | 23 | 2.0 | 9.0 | 0.00 | 0.00 | 0.00 | 61 | 1025.5 |
| 20260508233007 | 56 | 59 | 3.0 | 12.0 | 0.00 | 0.00 | 0.00 | 61 | 1025.4 |
| 20260508231507 | 56 | 360 | 3.0 | 11.0 | 0.00 | 0.00 | 0.00 | 60 | 1025.4 |
| 20260508230002 | 56 | 11 | 3.0 | 11.0 | 0.00 | 0.00 | 0.00 | 60 | 1025.2 |
| 20260508224600 | 57 | 326 | 5.0 | 11.0 | 0.00 | 0.00 | 0.00 | 59 | 1025.2 |
| 20260508223055 | 57 | 28 | 5.0 | 9.0 | 0.00 | 0.00 | 0.00 | 59 | 1025.2 |
| 20260508221553 | 57 | 49 | 4.0 | 9.0 | 0.00 | 0.00 | 0.00 | 58 | 1025.1 |
| 20260508220050 | 58 | 5 | 4.0 | 11.0 | 0.00 | 0.00 | 0.00 | 58 | 1025.2 |
| 20260508214601 | 58 | 20 | 3.0 | 8.0 | 0.00 | 0.00 | 0.00 | 56 | 1025.3 |
| 20260508213041 | 58 | 24 | 6.0 | 12.0 | 0.00 | 0.00 | 0.00 | 56 | 1025.2 |
| 20260508211538 | 59 | 26 | 5.0 | 10.0 | 0.00 | 0.00 | 0.00 | 55 | 1025.1 |
| 20260508210038 | 59 | 23 | 5.0 | 9.0 | 0.00 | 0.00 | 0.00 | 55 | 1024.9 |
| 20260508204536 | 59 | 19 | 3.0 | 13.0 | 0.00 | 0.00 | 0.00 | 54 | 1024.7 |
| 20260508203003 | 59 | 24 | 3.0 | 11.0 | 0.00 | 0.00 | 0.00 | 54 | 1024.6 |
| 20260508201558 | 60 | 15 | 4.0 | 11.0 | 0.00 | 0.00 | 0.00 | 53 | 1024.4 |
| 20260508200052 | 60 | 17 | 3.0 | 9.0 | 0.00 | 0.00 | 0.00 | 52 | 1024.4 |
| 20260508194554 | 60 | 9 | 2.0 | 7.0 | 0.00 | 0.00 | 0.00 | 52 | 1024.4 |
| 20260508193102 | 60 | 13 | 3.0 | 7.0 | 0.00 | 0.00 | 0.00 | 52 | 1024.3 |
| 20260508191556 | 61 | 30 | 2.0 | 11.0 | 0.00 | 0.00 | 0.00 | 52 | 1024.1 |
| 20260508190103 | 60 | 355 | 4.0 | 12.0 | 0.00 | 0.00 | 0.00 | 52 | 1023.8 |
| 20260508184547 | 60 | 18 | 3.0 | 9.0 | 0.00 | 0.00 | 0.00 | 52 | 1023.9 |
| 20260508183059 | 60 | 69 | 2.0 | 7.0 | 0.00 | 0.00 | 0.00 | 53 | 1024.0 |
| 20260508181544 | 60 | 35 | 1.0 | 5.0 | 0.00 | 0.00 | 0.00 | 52 | 1024.2 |
| 20260508180056 | 60 | 46 | 1.0 | 5.0 | 0.00 | 0.00 | 0.00 | 51 | 1024.2 |
| 20260508174558 | 61 | 69 | 0.0 | 7.0 | 0.00 | 0.00 | 0.00 | 51 | 1024.3 |
| 20260508173041 | 61 | 21 | 0.0 | 6.0 | 0.00 | 0.00 | 0.00 | 51 | 1024.2 |
| 20260508171540 | 62 | 35 | 1.0 | 5.0 | 0.00 | 0.00 | 0.00 | 50 | 1024.0 |
| 20260508170041 | 62 | 123 | 1.0 | 6.0 | 0.00 | 0.00 | 0.00 | 48 | 1024.2 |
| 20260508164545 | 63 | 116 | 1.0 | 6.0 | 0.00 | 0.00 | 0.00 | 47 | 1024.3 |
| 20260508163037 | 63 | 84 | 1.0 | 6.0 | 0.00 | 0.00 | 0.00 | 46 | 1024.2 |
| 20260508161535 | 63 | 59 | 2.0 | 8.0 | 0.00 | 0.00 | 0.00 | 46 | 1024.2 |
| 20260508160035 | 64 | 75 | 2.0 | 6.0 | 0.00 | 0.00 | 0.00 | 45 | 1024.0 |
| 20260508154532 | 64 | 355 | 3.0 | 8.0 | 0.00 | 0.00 | 0.00 | 44 | 1024.0 |
| 20260508153039 | 64 | 30 | 3.0 | 7.0 | 0.00 | 0.00 | 0.00 | 44 | 1023.9 |
| 20260508151530 | 64 | 5 | 2.0 | 9.0 | 0.00 | 0.00 | 0.00 | 44 | 1024.0 |
| 20260508150029 | 64 | 20 | 1.0 | 7.0 | 0.00 | 0.00 | 0.00 | 44 | 1024.1 |
| 20260508144529 | 64 | 75 | 1.0 | 6.0 | 0.00 | 0.00 | 0.00 | 44 | 1024.2 |
| 20260508143025 | 64 | 38 | 1.0 | 3.0 | 0.00 | 0.00 | 0.00 | 45 | 1024.4 |
| 20260508141525 | 64 | 27 | 1.0 | 5.0 | 0.00 | 0.00 | 0.00 | 45 | 1024.3 |
| 20260508140024 | 64 | 5 | 1.0 | 5.0 | 0.00 | 0.00 | 0.00 | 46 | 1024.3 |
| 20260508134520 | 65 | 19 | 3.0 | 10.0 | 0.00 | 0.00 | 0.00 | 47 | 1024.1 |
| 20260508133020 | 65 | 39 | 2.0 | 7.0 | 0.00 | 0.00 | 0.00 | 48 | 1024.0 |
| 20260508131518 | 65 | 74 | 2.0 | 6.0 | 0.00 | 0.00 | 0.00 | 49 | 1024.1 |
| 20260508130029 | 65 | 74 | 2.0 | 6.0 | 0.00 | 0.00 | 0.00 | 49 | 1024.1 |
| 20260508124514 | 65 | 36 | 1.0 | 10.0 | 0.00 | 0.00 | 0.00 | 49 | 1024.1 |
| 20260508123017 | 65 | 71 | 2.0 | 8.0 | 0.00 | 0.00 | 0.00 | 49 | 1024.1 |
| 20260508121514 | 66 | 88 | 1.0 | 5.0 | 0.00 | 0.00 | 0.00 | 49 | 1024.1 |
| 20260508120058 | 66 | 65 | 1.0 | 5.0 | 0.00 | 0.00 | 0.00 | 48 | 1024.1 |
| 20260508114554 | 66 | 51 | 2.0 | 5.0 | 0.00 | 0.00 | 0.00 | 48 | 1023.9 |
| 20260508113041 | 67 | 71 | 2.0 | 5.0 | 0.00 | 0.00 | 0.00 | 47 | 1023.9 |
| 20260508111541 | 67 | 155 | 1.0 | 6.0 | 0.00 | 0.00 | 0.00 | 47 | 1024.0 |
| 20260508110037 | 67 | 86 | 2.0 | 6.0 | 0.00 | 0.00 | 0.00 | 46 | 1023.9 |
| 20260508104539 | 68 | 85 | 1.0 | 7.0 | 0.00 | 0.00 | 0.00 | 46 | 1024.1 |
| 20260508103010 | 68 | 63 | 1.0 | 6.0 | 0.00 | 0.00 | 0.00 | 45 | 1024.0 |
| 20260508101505 | 69 | 5 | 1.0 | 8.0 | 0.00 | 0.00 | 0.00 | 45 | 1023.9 |
| 20260508100108 | 69 | 82 | 1.0 | 6.0 | 0.00 | 0.00 | 0.00 | 46 | 1023.8 |
| 20260508094538 | 70 | 61 | 1.0 | 7.0 | 0.00 | 0.00 | 0.00 | 45 | 1023.7 |
| 20260508093040 | 71 | 46 | 1.0 | 8.0 | 0.00 | 0.00 | 0.00 | 44 | 1023.5 |
| 20260508091537 | 71 | 109 | 3.0 | 8.0 | 0.00 | 0.00 | 0.00 | 43 | 1023.4 |
| 20260508090035 | 73 | 87 | 4.0 | 8.0 | 0.00 | 0.00 | 0.00 | 42 | 1023.4 |
| 20260508084537 | 73 | 108 | 3.0 | 8.0 | 0.00 | 0.00 | 0.00 | 40 | 1023.2 |
| 20260508081526 | 74 | 55 | 2.0 | 8.0 | 0.00 | 0.00 | 0.00 | 39 | 1023.2 |
| 20260508080024 | 74 | 46 | 3.0 | 9.0 | 0.00 | 0.00 | 0.00 | 38 | 1023.3 |
| 20260508074524 | 74 | 346 | 3.0 | 12.0 | 0.00 | 0.00 | 0.00 | 38 | 1023.2 |
| 20260508071539 | 75 | 96 | 4.0 | 10.0 | 0.00 | 0.00 | 0.00 | 39 | 1023.2 |
| 20260508070038 | 74 | 355 | 3.0 | 8.0 | 0.00 | 0.00 | 0.00 | 40 | 1023.2 |
| 20260508064540 | 75 | 30 | 5.0 | 10.0 | 0.00 | 0.00 | 0.00 | 40 | 1023.2 |
| 20260508061549 | 75 | 113 | 3.0 | 9.0 | 0.00 | 0.00 | 0.00 | 39 | 1023.5 |
| 20260508060047 | 75 | 60 | 3.0 | 9.0 | 0.00 | 0.00 | 0.00 | 41 | 1023.8 |
| 20260508054544 | 74 | 35 | 1.0 | 9.0 | 0.00 | 0.00 | 0.00 | 43 | 1023.9 |
| 20260508053143 | 75 | 39 | 6.0 | 11.0 | 0.00 | 0.00 | 0.00 | 41 | 1024.1 |
| 20260508051525 | 73 | 81 | 3.0 | 9.0 | 0.00 | 0.00 | 0.00 | 46 | 1024.2 |
| 20260508050037 | 73 | 133 | 3.0 | 8.0 | 0.00 | 0.00 | 0.00 | 47 | 1024.6 |
| 20260508044527 | 72 | 11 | 3.0 | 12.0 | 0.00 | 0.00 | 0.00 | 48 | 1024.8 |
| 20260508043026 | 72 | 9 | 2.0 | 15.0 | 0.00 | 0.00 | 0.00 | 47 | 1025.0 |
| 20260508041522 | 72 | 209 | 2.0 | 12.0 | 0.00 | 0.00 | 0.00 | 48 | 1025.4 |
| 20260508040021 | 71 | 15 | 6.0 | 13.0 | 0.00 | 0.00 | 0.00 | 48 | 1025.7 |
| 20260508034547 | 70 | 31 | 4.0 | 15.0 | 0.00 | 0.00 | 0.00 | 49 | 1026.1 |
| 20260508033042 | 70 | 360 | 9.0 | 18.0 | 0.00 | 0.00 | 0.00 | 48 | 1026.3 |
| 20260508031507 | 70 | 30 | 5.0 | 13.0 | 0.00 | 0.00 | 0.00 | 50 | 1026.6 |
| 20260508030002 | 68 | 13 | 4.0 | 12.0 | 0.00 | 0.00 | 0.00 | 52 | 1026.8 |
| 20260508024530 | 68 | 22 | 6.0 | 13.0 | 0.00 | 0.00 | 0.00 | 53 | 1026.9 |
| 20260508023027 | 67 | 150 | 5.0 | 15.0 | 0.00 | 0.00 | 0.00 | 54 | 1027.2 |
| 20260508021515 | 67 | 17 | 6.0 | 16.0 | 0.00 | 0.00 | 0.00 | 54 | 1027.2 |
| 20260508020012 | 67 | 84 | 7.0 | 13.0 | 0.00 | 0.00 | 0.00 | 53 | 1027.4 |
| 20260508014510 | 66 | 30 | 3.0 | 12.0 | 0.00 | 0.00 | 0.00 | 54 | 1027.4 |
| 20260508013002 | 65 | 38 | 5.0 | 15.0 | 0.00 | 0.00 | 0.00 | 56 | 1027.5 |
| 20260508011558 | 65 | 84 | 5.0 | 10.0 | 0.00 | 0.00 | 0.00 | 58 | 1027.7 |
| 20260508010050 | 64 | 12 | 6.0 | 12.0 | 0.00 | 0.00 | 0.00 | 59 | 1027.8 |
| 20260508004545 | 62 | 335 | 1.0 | 6.0 | 0.00 | 0.00 | 0.00 | 63 | 1028.1 |
| 20260508003041 | 60 | 69 | 2.0 | 6.0 | 0.00 | 0.00 | 0.00 | 66 | 1028.0 |